IRIDIUM 71

Satellite information

Favourite Embed

Satellite Type and Status

PAYLOADIN ORBIT

Key statistics

Satellite IRIDIUM 71 at a glance.

Uptime

9927

Days in orbit

Revolutions

≈ 14.4

Per day

Orbit

LEO

Low Earth Orbit

Inclination

86.4

Latest

Satellite identification and parameters

Extended collection of information and parameters for IRIDIUM 71.

Object identification

Identified? True

Debris? False

Object name: IRIDIUM 71

International designator: 1998-026B

Object number (NORAD): 25320

Object ID (CCSDS): 25320

Country: UNITED STATES OF AMERICA (US)

Current information (Y/N): Y

RCS size: LARGE

Orbital parameters

Period: 99.919 minutes

Inclination: 86.3962 deg

SMA: 7132.772 km

Apoapsis: 757.327 km

Periapsis: 751.948 km

RAAN: 82.4775 deg

Eccentricy: 0.000377

Argument of periapsis: 56.5684 deg

Mean anomaly: 303.5876 deg

Mean motion: 14.41169978 rev/day

Mean motion (dot): 0.00000308 rev/day2

B* drag term: 0.000089228 1/REarth

Two-line elements (TLE)

Creation date: July 5, 2025, 5:45 p.m.

Reference frame: TEME

Reference center: EARTH

Epoch: July 5, 2025, 6:02 a.m. UTC

TLE line 0: 0 IRIDIUM 71

TLE line 1: 1 25320U 98026B 25186.25146733 .00000308 00000-0 89228-4 0 9994

TLE line 2: 2 25320 86.3962 82.4775 0003770 56.5684 303.5876 14.41169978426196

Live tracking on map

Real-time ground track for satellite IRIDIUM 71.

In-orbit conjunctions

A list of the most updated potential collisions computed for object IRIDIUM 71.

Target Orbit TCA Probability of collision Miss distance Type
CZ-6A DEB LEO 2025-01-25 13:05:35 0.0005566703 725.0 (m) DEBRIS
NOAA 17 DEB SSO 2024-12-17 17:38:25 0.0001417571 624.0 (m) DEBRIS
CZ-6A DEB LEO 2024-10-03 04:09:59 0.0002594318 229.0 (m) DEBRIS
DELTA 1 DEB LEO 2024-07-16 17:34:48 0.0003390527 991.0 (m) DEBRIS
NOAA 16 DEB SSO 2024-06-23 01:18:41 0.0001013824 920.0 (m) DEBRIS

Associated space launch

Iridium provides global mobile telecommunications services using a constellation of 66 low earth orbit satellites in a 86.4° inclined orbit. Although 77 satellites were originally envisioned for the system and spawned the name based on the 77th element in the periodic table, the system has been scaled back. Motorola's Satellite Communications Group designed and manufactured the Iridium satellites with Lockheed Martin providing the LM-700A spacecraft buses.

IRIDIUM 71 was lifted into orbit during the mission ‘Long March 2C/SD | Iridium 69 & 71’, on board a Long March 2C/SD space rocket.

The launch took place on May 2, 1998, 9:16 a.m. from Launch Complex 7.

For more information about the launch, click the button.

Launch to space Long March 2C/SD | Iridium 69 & 71
Long March 2C/SD | Iridium 69 & 71

Agency: N/A

Status: Launch Successful

Launch date: May 2, 1998, 9:16 a.m. UTC

Rocket: Long March 2C/SD

Launch pad: Launch Complex 7

Location: Taiyuan Satellite Launch Center, People's Republic of China

...

Latest news about this satellite

There are no fresh news available about this satellite. Check back as we update our databases every day.


Newsletter sign-up

Weekly statistics, charts and insights to help you stay on top of the space industry.